Weather History for LTCE - February, 2013

Change the Weather History Date:

Wednesday, February 13, 2013

  Actual Average Record
Temperature  
Mean Temperature 12 °F -  
Max Temperature 28 °F 32 °F 66 °F (2007)
Min Temperature -4 °F 17 °F -25 °F (2005)
Degree Days  
Heating Degree Days 53    
Moisture  
Dew Point 4 °F    
Average Humidity 92    
Maximum Humidity 100    
Minimum Humidity 80    
Precipitation  
Precipitation 0.00 in 0.04 in - ()
Sea Level Pressure  
Sea Level Pressure 30.21 in    
Wind  
Wind Speed 1 mph ()    
Max Wind Speed 5 mph    
Max Gust Speed -    
Visibility 1.8 miles    
Events Fog    
Averages and records for this station are not official NWS values.
T = Trace of Precipitation, MM = Missing Value Source: Averaged Metar Reports

Daily Weather History Graph

Daily Weather History Graph

Search for Another Location

Airport or City:

Trip Planner

Search our weather history database for the weather conditions in past years. The results will help you decide how hot, cold, wet, or windy it might be!

Date:

Astronomy

Feb. 13, 2013 Rise Set
Actual Time 6:10 AM EET 4:48 PM EET
Civil Twilight 5:42 AM EET 5:16 PM EET
Nautical Twilight 5:11 AM EET 5:48 PM EET
Astronomical Twilight 4:39 AM EET 6:19 PM EET
Moon 7:28 AM EET (2/13) 8:29 PM EET (2/13)
Length of Visible Light 11h 33m
Length of Day
10h 38m
Waxing Crescent, 11% of the Moon is Illuminated
Feb 13
Waxing Crescent
Feb 17
First Quarter
Feb 25
Full
Mar 4
Last Quarter
Mar 11
New

Hourly Weather History & Observations

Time (EET) Temp. Windchill Dew Point Humidity Pressure Visibility Wind Dir Wind Speed Gust Speed Precip Events Conditions
12:20 AM 6.8 °F - 6.8 °F 100% 30.09 in - Variable 2.3 mph - N/A   Partly Cloudy
12:50 AM 3.2 °F - 3.2 °F 100% 30.12 in 2.2 mi Variable 2.3 mph - N/A   Partly Cloudy
1:20 AM 1.4 °F - -0.4 °F 92% 30.12 in 2.2 mi Variable 1.2 mph - N/A   Partly Cloudy
1:50 AM 1.4 °F - 1.4 °F 100% 30.12 in 2.2 mi Variable 1.2 mph - N/A   Partly Cloudy
2:00 AM 3 °F - 1 °F 87%  in 2 mi SSE 1.2 mph - -   Mist
2:20 AM 1.4 °F - -0.4 °F 92% 30.12 in 2.2 mi Calm Calm - N/A   Partly Cloudy
2:50 AM 1.4 °F - -0.4 °F 92% 30.12 in 2.2 mi Variable 1.2 mph - N/A   Partly Cloudy
3:20 AM -0.4 °F - -2.2 °F 92% 30.12 in 2.2 mi Calm Calm - N/A   Partly Cloudy
3:50 AM -2.2 °F - -4.0 °F 92% 30.15 in 2.2 mi Variable 1.2 mph - N/A   Partly Cloudy
4:20 AM -2.2 °F - -4.0 °F 92% 30.15 in 2.2 mi Calm Calm - N/A   Partly Cloudy
4:50 AM -2.2 °F - -5.8 °F 85% 30.15 in 2.2 mi Variable 1.2 mph - N/A   Partly Cloudy
5:20 AM -4.0 °F - -5.8 °F 92% 30.15 in 0.6 mi NE 2.3 mph - N/A   Partly Cloudy
5:50 AM -2.2 °F - -5.8 °F 85% 30.18 in 0.4 mi Calm Calm - N/A   Partly Cloudy
6:20 AM -4.0 °F - -5.8 °F 92% 30.18 in 0.1 mi Calm Calm - N/A Fog Light Freezing Fog
6:50 AM -4.0 °F - -5.8 °F 92% 30.21 in 0.2 mi West 2.3 mph - N/A Fog Light Freezing Fog
7:20 AM 1.4 °F - -0.4 °F 92% 30.21 in 0.4 mi SW 2.3 mph - N/A Fog Patches of Fog
7:50 AM 3.2 °F - 3.2 °F 100% 30.21 in 0.7 mi Variable 1.2 mph - N/A Fog Patches of Fog
8:00 AM 4 °F - 3 °F 93%  in 1 mi South 1.2 mph - - Fog Patches of Fog
8:20 AM 1.4 °F - -2.2 °F 85% 30.21 in 0.7 mi ENE 2.3 mph - N/A Fog Patches of Fog
8:50 AM 3.2 °F - 1.4 °F 92% 30.24 in 0.2 mi ENE 1.2 mph - N/A Fog Patches of Fog
9:20 AM 5.0 °F - 3.2 °F 92% 30.24 in - Variable 2.3 mph - N/A Fog Patches of Fog
9:50 AM 12.2 °F - 12.2 °F 100% 30.24 in 0.9 mi Calm Calm - N/A Fog Patches of Fog
10:20 AM 10.4 °F - 8.6 °F 92% 30.24 in 2.2 mi ESE 2.3 mph - N/A   Mist
10:50 AM 12.2 °F - 12.2 °F 100% 30.24 in 3.7 mi Calm Calm - N/A   Unknown
11:20 AM 14.0 °F - 12.2 °F 93% 30.24 in 3.7 mi Calm Calm - N/A   Unknown
11:50 AM 15.8 °F 10.2 °F 14.0 °F 93% 30.21 in 3.7 mi West 3.5 mph - N/A   Unknown
12:20 PM 17.6 °F 12.3 °F 17.6 °F 100% 30.21 in 3.7 mi West 3.5 mph - N/A   Unknown
12:50 PM 19.4 °F 14.3 °F 17.6 °F 93% 30.21 in 3.7 mi WSW 3.5 mph - N/A   Unknown
1:20 PM 23.0 °F - 21.2 °F 93% 30.24 in 3.7 mi Variable 1.2 mph - N/A   Unknown
1:50 PM 21.2 °F 16.4 °F 19.4 °F 93% 30.24 in 3.7 mi NE 3.5 mph - N/A   Unknown
2:00 PM 21 °F - 20 °F 95%  in 4 mi NE 3.5 mph - -   Mist
2:20 PM 21.2 °F 16.4 °F 17.6 °F 86% 30.24 in 3.7 mi ENE 3.5 mph - N/A   Unknown
2:50 PM 19.4 °F 14.3 °F 15.8 °F 86% 30.24 in 3.7 mi ENE 3.5 mph - N/A   Unknown
3:20 PM 19.4 °F 14.3 °F 15.8 °F 86% 30.24 in 3.7 mi East 3.5 mph - N/A   Unknown
3:50 PM 19.4 °F - 14.0 °F 80% 30.24 in 3.7 mi Variable 2.3 mph - N/A   Unknown
4:20 PM 14.0 °F - 10.4 °F 86% 30.24 in 3.7 mi Calm Calm - N/A   Unknown
4:50 PM 12.2 °F - 8.6 °F 85% 30.24 in 2.5 mi Calm Calm - N/A   Mist
5:20 PM 14.0 °F - 12.2 °F 93% 30.24 in 2.5 mi Variable 2.3 mph - N/A   Mist
5:50 PM 8.6 °F 2.0 °F 6.8 °F 92% 30.24 in 2.5 mi West 3.5 mph - N/A   Mist
6:20 PM 8.6 °F 0.1 °F 6.8 °F 92% 30.24 in 2.5 mi West 4.6 mph - N/A   Mist
6:50 PM 6.8 °F - 5.0 °F 92% 30.27 in 2.5 mi Variable 2.3 mph - N/A   Mist
7:20 PM -0.4 °F - -2.2 °F 92% 30.27 in 0.2 mi Variable 2.3 mph - N/A Fog Light Freezing Fog
7:50 PM -0.4 °F - -2.2 °F 92% 30.27 in 0.2 mi Variable 1.2 mph - N/A Fog Light Freezing Fog
8:00 PM 0 °F - 0 °F 100%  in 0 mi ESE 1.2 mph - - Fog Fog
8:20 PM 1.4 °F - -0.4 °F 92% 30.27 in 0.2 mi Calm Calm - N/A Fog Light Freezing Fog
8:50 PM -0.4 °F - -2.2 °F 92% 30.27 in 0.2 mi Calm Calm - N/A Fog Light Freezing Fog
9:20 PM 1.4 °F - -0.4 °F 92% 30.27 in 0.2 mi Variable 1.2 mph - N/A Fog Light Freezing Fog
9:50 PM 1.4 °F - -0.4 °F 92% 30.27 in 0.2 mi NNW 2.3 mph - N/A Fog Light Freezing Fog
10:20 PM 1.4 °F - -2.2 °F 85% 30.27 in 0.2 mi Variable 1.2 mph - N/A Fog Light Freezing Fog
10:50 PM -0.4 °F - -4.0 °F 85% 30.27 in 0.2 mi Calm Calm - N/A Fog Light Freezing Fog
11:20 PM -2.2 °F - -5.8 °F 85% 30.27 in 0.2 mi SSE 1.2 mph - N/A Fog Light Freezing Fog
11:50 PM -4.0 °F - -7.6 °F 85% 30.27 in 0.2 mi ESE 1.2 mph - N/A Fog Light Freezing Fog